Pagrindinis puslapis
METAR-TAF:

METAR-TAF

Oro uostai :

Anderson, Indiana, Jungtinės Amerikos Valstijos

platuma: 40-07N, ilguma: 085-37W, Aukštis: 280 m

Dabartinis oras

Ataskaita buvo paskelbta 22 minutes, ne 08:55 UTC
Vėjas 4 kt iš Pietų/Pietvakarių
Temperatūra 8°C
Drėgmė 87%
Slėgis 1008 hPa
Matomumas: 16.1 km
Giedras dangus

METAR: KAID 300855Z AUTO 20004KT 10SM CLR 08/06 A2977 RMK AO2 T00770062

Laikas: 05:17 (09:17 UTC)


TAF: trūkstamas

Orai ataskaitas ir orų prognozės (METAR, TAF).

turimą stotys yra geltonos ir raudonos taškus žemėlapyje.

Perkelti pele per norėdami pamatyti stoties vardą.

Tada spustelėkite, norėdami matyti oro stebėjimo ir prognozės.

Norėdami pakeisti žemėlapį: spustelėkite ant žalios mygtukų su juodo kryžiaus žemyn,; žalią mygtuką su brūkšneliu, jei norite nutolinti; arba žalių rodyklių gretimoms žemėlapius.


METAR-TAF: